STARLINK-34868

Last updated on Fri Oct 17 2025 00:02:05 GMT+0000 (Coordinated Universal Time)

1 65648U 25210AC 25289.20503120 .00071216 00000+0 12758-2 0 9999 2 65648 53.1581 260.0462 0001238 92.2854 267.8297 15.49332415 5584

Satellite not in orbit

STARLINK-34868